STARLINK-35951, 66619

Orbit data source: Space-Track

STARLINK-35951, 66619 is a payload satellite owned by SpaceX/Seattle (US) in LEO that was launched on Sun, 23 Nov 2025 UTC via an FALCON 9 launch vehicle from the Air Force Western Test Range (AFWTR). Payload-class satellites include a variety of spacecraft equipped with specific instruments for various scientific and technological missions. These include communications satellites like Starlink; space stations such as the ISS; scientific satellites like the Hubble; Earth observation satellites from companies like Planet Labs, Umbra, and HawkEye 360; GPS; miniature CubeSats for education and research; and military/defense satellites.

Loading next visibility...
Identifier
66619, 2025-271C
Orbit
LEO
Country
Flag of USUS
Related business
Manufacturer
SpaceX/Seattle
Mission
Operational Commercial Communications
Bus & Motor
STARLINK V2MO, Unknown motor
Mass
575 kg wet, ~530 kg dry
Launch date (UTC)
2025-11-23 (2 months ago)
Launch vehicle
FALCON 9
Launch site
Air Force Western Test Range (AFWTR)
Object type
Payload
Rocket body
Debris
Shape & HBR
Box + 2 Pan, 17.7 m
Radar Cross Section
36.964 m²

Expand to show TLE details & history
Last TLE update: 8 hours ago

TLE from 8 hours ago
0 STARLINK-35951
1 66619U 25271C   26037.07384122  .00008948  00000-0  31390-3 0  9998
2 66619  53.1572 286.9697 0001168  51.5463 308.5642 15.30196566 12722
Epoch: 2026-02-06T01:46Z
TLE epoch observation values (Epoch: 2026-02-06T01:46:19.881Z)
Latitude
-0.00005°
Longitude
124.16988°
Altitude
475.626 km
Speed
7.629 km/s
True Right ascension
19h 07m 52s
True Declination
0° 00' 00"
Sunlit
Object was in daylight at epoch
Visualization orbit readout
Latitude
Unknown
Longitude
Unknown
Altitude
Unknown
Speed
Unknown
Apparent Right ascension
Unknown
Apparent Declination
Unknown
Sunlit
N/A
Visualization observer readout
Local Sidereal Time
12:08:00
Azimuth
Unknown
Elevation
Unknown
Doppler factor
Unknown
Orbital elements
Apogee altitude
476.283 km
Perigee altitude
474.682 km
Semi-major axis
6,853.619 km
Eccentricity
0.00012
Inclination
53.1572°
RAAN
286.9697°
Arg. of periapsis
51.5463°
True anomaly
308.55373°
Mean anomaly
308.5642°
Eccentric anomaly
308.55897°
Mean motion
3.82528 °/min
Orbital period
94.11 mins
BSTAR
0.0003139
Loading maneuver chart data...
Computing Atmospheric mass density...
Loading historical data...
Loading historical data...
Loading historical data...
Loading historical data...
Loading historical data...
Loading historical data...
Loading historical data...

Documentation

Showing up to 5 results
|